Location: Crescent
(42.8242°N, 73.7329°W)
Time: 00:46:05
(UTC+00:00)

Tiros 1 - Pass Details

Date: 24 February 2026
Orbit: 618 x 649 km, 48.4° (Epoch: 10 March)

Event Time Altitude Azimuth Distance (km) Brightness Sun altitude
Rises 13:39:51 0° 279° (W) 2,918 10.0 19.6°
Reaches altitude 10° 13:42:18 10° 287° (WNW) 2,005 9.2 19.9°
Maximum altitude 13:46:40 41° 358° (N) 914 7.9 20.6°
Drops below altitude 10° 13:51:00 10° 69° (ENE) 1,989 10.2 21.2°
Sets 13:53:25 0° 77° (ENE) 2,892 11.1 21.6°
